Miscellaneous Local Product
Issued by NWS North Platte, NE

Home | Current Version | Previous Version | Graphics & Text | Print | Product List | Glossary On
Versions: 1 2 3 4 5 6 7 8 9 10 11 12 13 14 15 16 17 18 19 20 21 22 23 24 25 26 27 28 29 30 31 32 33 34 35 36 37 38 39 40 41 42 43 44 45 46 47 48 49 50
000
AXUS43 KLBF 290610
MISLBF


WESTERN AND NORTH CENTRAL NEBRASKA HOURLY WEATHER ROUNDUP
NATIONAL WEATHER SERVICE NORTH PLATTE NE
100 AM CDT SUN MAR 29 2015

***STATIONS NOT REPORTING VARIABLES SUCH AS SKY/WEATHER OR
PRESSURE ARE PROVIDED BY THE NEBRASKA DEPARTMENT OF
ROADS...RAWS...AND APRS NETWORKS...AND ARE NOT UNDER
NATIONAL WEATHER SERVICE QUALITY CONTROL***

...OBSERVATIONS IN AND NEAR THE EASTERN PANHANDLE OF NEBRASKA...

CITY           SKY/WX    TMP DP  RH WIND       PRES   REMARKS
PINE RIDGE     CLEAR     55  21  26 N16G25    29.88R
CHADRON        CLEAR     54  29  38 W16       29.93R
ALLIANCE       CLEAR     55  36  48 N18       29.92R
SIDNEY         MOCLDY    61  28  28 NW25G33   29.93R
WHITECLAY        N/A     53  23  30 NW17        N/A
CRESCENT LAKE    N/A     57  31  38 NW13G21     N/A
BIG SPRINGS      N/A     68  30  24 W12         N/A
$$

...OBSERVATIONS IN NORTH CENTRAL NEBRASKA...

CITY           SKY/WX    TMP DP  RH WIND       PRES   REMARKS
VALENTINE      PTCLDY    58  39  49 N23G30    29.82R
THEDFORD       MOCLDY    65  40  39 N32G44    29.79R
AINSWORTH      MOCLDY    62  40  44 NW16G30   29.80R
O`NEILL        CLOUDY    53  37  54 SW14G23   29.74R
ORD            PTCLDY    51  35  54 S18G29    29.74F
BROKEN BOW     MOCLDY    58  39  49 S20G28    29.71F
BROWNLEE         N/A     62  37  38 N29         N/A
SPRINGVIEW       N/A     62  44  51 NW16G25     N/A
BREWSTER         N/A     58  39  49 SW8         N/A
ROSE             N/A     55  40  56 CALM        N/A
NEWPORT          N/A     55  37  50 W16         N/A
SARGENT          N/A     52  38  60 CALM        N/A
COMSTOCK         N/A     55  39  54 S20         N/A
EWING            N/A     49  38  65 S9G17       N/A
$$

...OBSERVATIONS IN SOUTHWEST NEBRASKA AND FAR NORTHEAST COLORADO...

CITY           SKY/WX    TMP DP  RH WIND       PRES   REMARKS
WRAY           FAIR      69  25  19 W9        29.88R
IMPERIAL       CLOUDY    74  26  16 W18G25    29.83R
OGALLALA       MOCLDY    69  28  21 NW25G38   29.80R
NORTH PLATTE   MOCLDY    60  38  43 SE8G17    29.78R
MCCOOK         PTCLDY    64  39  39 SW14G22   29.84R
LEXINGTON      CLOUDY    57  40  52 SE13      29.80F
PAXTON           N/A     61  31  31 S3          N/A
SUTHERLAND       N/A     58  31  35 W8          N/A
BRADY            N/A     58  39  50 CALM        N/A
GOTHENBURG       N/A     63  37  37 S12         N/A
CALLAWAY         N/A     60  41  50 S29         N/A
$$

...NORTH PLATTE AREA...

CITY           SKY/WX    TMP DP  RH WIND       PRES   REMARKS
AIRPORT        MOCLDY    60  38  43 SE8G17    29.78R
DOWNTOWN         N/A     60  38  44 S3          N/A
$$

...SOME WEATHER OBSERVATIONS FROM AROUND THE REGION...

CITY           SKY/WX    TMP DP  RH WIND       PRES   REMARKS
DENVER         PTCLDY    60  32  34 NW15      30.02R
LARAMIE        CLEAR     46  17  31 NW23      30.09R
CHEYENNE       CLEAR     55  15  20 NW25G38   30.00R
SCOTTSBLUFF    CLEAR     54  31  41 NW15      29.97R
RAPID CITY     CLEAR     54  15  21 NW26G36   29.82R
PIERRE         CLEAR     53  44  71 NW21      29.72R
WINNER         FAIR      60  41  49 NW32G39   29.75R
SIOUX FALLS    PTCLDY    43  31  62 S23       29.74F
OMAHA          CLEAR     43  32  65 S24G31    29.90F
GRAND ISLAND   CLEAR     49  36  61 S23G29    29.83R
KANSAS CITY    CLEAR     40  32  73 SE16      30.04F WCI  31
WICHITA        CLEAR     54  39  57 S14       29.96F
HAYS           CLEAR     57  39  51 S21G28    29.85F
LIBERAL        CLEAR     55  36  47 S13       29.93F
GOODLAND       PTCLDY    59  34  39 S20       29.86S
$$



USA.gov is the U.S. government's official web portal to all federal, state and local government web resources and services.